BM2MWA-13 Weather Reports


Display with metric or nautical units.
time (UTC)temp
F
wind
direction
speed
MPH
gust
MPH
rain 1hr
in
rain 24hr
in
rain mn
in
humidity
%
barometer
mb
20260509063703 69 90 12.0 26.0 0.00 0.00 0.00 85 1012.2
20260509062703 69 100 10.0 26.0 0.00 0.00 0.00 86 1012.1
20260509061703 69 100 8.0 26.0 0.00 0.00 0.00 86 1012.6
20260509060703 68 100 8.0 28.0 0.00 0.00 0.00 87 1012.6
20260509055703 68 100 10.0 28.0 0.00 0.00 0.00 85 1012.5
20260509054704 68 100 11.0 28.0 0.00 0.00 0.00 86 1012.7
20260509053704 68 100 10.0 28.0 0.00 0.00 0.00 88 1013.0
20260509052704 68 100 9.0 28.0 0.00 0.00 0.00 86 1013.0
20260509051704 69 100 10.0 28.0 0.00 0.00 0.00 84 1013.2
20260509050704 69 100 10.0 26.0 0.00 0.00 0.00 82 1013.4
20260509045703 68 100 11.0 26.0 0.00 0.00 0.00 83 1013.3
20260509044704 68 110 12.0 26.0 0.00 0.00 0.00 84 1013.6
20260509043703 69 100 10.0 26.0 0.00 0.00 0.00 82 1013.6
20260509042704 69 100 11.0 26.0 0.00 0.00 0.00 80 1013.5
20260509041703 69 100 9.0 26.0 0.00 0.00 0.00 81 1013.5
20260509040703 69 100 10.0 21.0 0.00 0.00 0.00 82 1013.9
20260509035704 70 110 10.0 21.0 0.00 0.00 0.00 81 1014.1
20260509034703 70 100 8.0 21.0 0.00 0.00 0.00 82 1013.9
20260509033703 69 100 9.0 21.0 0.00 0.00 0.00 86 1014.1
20260509032703 69 100 9.0 21.0 0.00 0.00 0.00 87 1014.4
20260509031704 68 100 8.0 21.0 0.00 0.00 0.00 87 1014.4
20260509030703 68 110 7.0 20.0 0.00 0.00 0.00 87 1014.6
20260509025704 68 100 9.0 20.0 0.00 0.00 0.00 87 1014.8
20260509024703 68 110 6.0 20.0 0.00 0.00 0.00 87 1015.0
20260509023704 68 110 9.0 20.0 0.00 0.00 0.00 87 1014.9
20260509022704 68 110 7.0 20.0 0.00 0.00 0.00 87 1014.9
20260509021704 68 110 7.0 20.0 0.00 0.00 0.00 86 1015.1
20260509020703 68 110 7.0 16.0 0.00 0.00 0.00 88 1015.0
20260509015704 68 100 8.0 16.0 0.00 0.00 0.00 88 1015.0
20260509014704 68 110 9.0 16.0 0.00 0.00 0.00 88 1014.9
20260509013703 68 110 8.0 16.0 0.00 0.00 0.00 88 1014.8
20260509012703 69 110 6.0 16.0 0.00 0.00 0.00 88 1014.9
20260509011704 69 110 6.0 16.0 0.00 0.00 0.00 89 1014.8
20260509010704 69 120 6.0 20.0 0.00 0.00 0.00 87 1014.7
20260509005703 69 110 5.0 20.0 0.00 0.00 0.00 87 1014.6
20260509004703 69 120 6.0 20.0 0.00 0.00 0.00 86 1014.5
20260509003703 69 120 5.0 20.0 0.00 0.00 0.00 85 1014.5
20260509002703 69 110 5.0 20.0 0.00 0.00 0.00 85 1014.4
20260509001703 69 120 6.0 20.0 0.00 0.00 0.00 85 1014.3
20260509000704 69 120 6.0 20.0 0.00 0.00 0.00 84 1014.1
20260508235704 69 120 6.0 20.0 0.00 0.00 0.00 86 1014.0
20260508234703 69 120 5.0 20.0 0.00 0.00 0.00 85 1014.0
20260508233703 69 120 5.0 20.0 0.00 0.00 0.00 85 1013.9
20260508232703 69 120 5.0 20.0 0.00 0.00 0.00 85 1013.9
20260508231703 69 110 6.0 20.0 0.00 0.00 0.00 85 1013.9
20260508230703 69 120 5.0 16.0 0.00 0.00 0.00 84 1013.7
20260508225703 69 110 6.0 16.0 0.00 0.00 0.00 84 1013.6
20260508224703 69 110 7.0 16.0 0.00 0.00 0.00 84 1013.5
20260508223703 69 100 7.0 16.0 0.00 0.00 0.00 84 1013.5
20260508222704 69 110 6.0 16.0 0.00 0.00 0.00 84 1013.3
20260508221704 69 120 7.0 16.0 0.00 0.00 0.00 84 1013.3
20260508220703 69 110 6.0 16.0 0.00 0.00 0.00 84 1013.3
20260508215703 69 100 6.0 16.0 0.00 0.00 0.00 84 1013.2
20260508214703 69 100 5.0 16.0 0.00 0.00 0.00 84 1013.1
20260508213703 69 120 6.0 16.0 0.00 0.00 0.00 83 1012.8
20260508212703 69 110 5.0 16.0 0.00 0.00 0.00 84 1012.8
20260508211704 69 110 6.0 16.0 0.00 0.00 0.00 84 1012.7
20260508210703 69 110 5.0 17.0 0.00 0.00 0.00 84 1012.6
20260508205703 69 110 7.0 17.0 0.00 0.00 0.00 84 1012.4
20260508204703 69 110 4.0 17.0 0.00 0.00 0.00 85 1012.3
20260508203703 69 110 7.0 17.0 0.00 0.00 0.00 85 1012.0
20260508202703 69 120 6.0 17.0 0.00 0.00 0.00 86 1012.1
20260508201703 69 110 5.0 17.0 0.00 0.00 0.00 86 1012.2
20260508200705 69 110 5.0 17.0 0.00 0.00 0.00 86 1012.2
20260508195703 69 110 6.0 17.0 0.00 0.00 0.00 86 1012.1
20260508194703 69 120 6.0 17.0 0.00 0.00 0.00 87 1011.9
20260508193703 69 110 7.0 17.0 0.00 0.00 0.00 87 1011.6
20260508192703 69 110 6.0 17.0 0.00 0.00 0.00 86 1011.9
20260508191704 69 120 6.0 17.0 0.00 0.00 0.00 86 1011.9
20260508190703 69 120 6.0 17.0 0.00 0.00 0.00 86 1012.0
20260508185703 69 130 6.0 17.0 0.00 0.00 0.00 86 1012.1
20260508184703 69 110 6.0 17.0 0.00 0.00 0.00 86 1012.2
20260508183703 69 110 6.0 17.0 0.00 0.00 0.00 85 1012.3
20260508182703 69 100 7.0 17.0 0.00 0.00 0.00 86 1012.3
20260508181703 69 100 6.0 17.0 0.00 0.00 0.00 87 1012.3
20260508180704 69 110 5.0 14.0 0.00 0.00 0.00 87 1012.3
20260508175703 69 120 7.0 14.0 0.00 0.00 0.00 88 1012.5
20260508174704 69 110 6.0 14.0 0.00 0.00 0.00 88 1012.5
20260508173703 69 110 4.0 14.0 0.00 0.00 0.00 88 1012.5
20260508172703 69 120 6.0 14.0 0.00 0.00 0.00 89 1012.7
20260508171703 69 130 5.0 14.0 0.00 0.00 0.00 89 1012.9
20260508170704 69 110 6.0 14.0 0.00 0.00 0.00 89 1013.0
20260508165703 69 110 6.0 14.0 0.00 0.00 0.00 89 1013.3
20260508164703 69 110 4.0 14.0 0.00 0.00 0.00 88 1013.4
20260508163703 69 110 5.0 14.0 0.00 0.00 0.00 88 1013.4
20260508162703 69 110 6.0 14.0 0.00 0.00 0.00 88 1013.5
20260508161704 69 120 6.0 14.0 0.00 0.00 0.00 88 1013.5
20260508160704 69 130 6.0 18.0 0.00 0.00 0.00 89 1013.5
20260508155703 69 110 4.0 18.0 0.00 0.00 0.00 89 1013.5
20260508154703 69 110 5.0 18.0 0.00 0.00 0.00 89 1013.6
20260508153703 69 120 5.0 18.0 0.00 0.00 0.00 89 1013.8
20260508152703 69 110 5.0 18.0 0.00 0.00 0.00 88 1013.9
20260508151704 69 120 6.0 18.0 0.00 0.00 0.00 86 1013.9
20260508150703 70 110 7.0 18.0 0.00 0.00 0.00 85 1014.0
20260508145704 70 120 5.0 18.0 0.00 0.00 0.00 84 1014.0
20260508144703 70 120 5.0 18.0 0.00 0.00 0.00 83 1014.0
20260508143704 70 110 6.0 18.0 0.00 0.00 0.00 83 1013.9
20260508142704 70 110 7.0 18.0 0.00 0.00 0.00 82 1013.8
20260508141704 70 110 5.0 18.0 0.00 0.00 0.00 82 1013.9
20260508140703 70 110 6.0 19.0 0.00 0.00 0.00 82 1014.0
20260508135704 70 120 5.0 19.0 0.00 0.00 0.00 82 1014.0
20260508134704 70 110 6.0 19.0 0.00 0.00 0.00 82 1013.8
20260508133703 70 110 6.0 19.0 0.00 0.00 0.00 82 1013.9
20260508132704 71 100 6.0 19.0 0.00 0.00 0.00 82 1013.9
20260508131703 70 100 7.0 19.0 0.00 0.00 0.00 82 1013.7
20260508130703 71 120 7.0 21.0 0.00 0.00 0.00 82 1013.7
20260508125703 71 110 7.0 21.0 0.00 0.00 0.00 81 1013.6
20260508124703 71 110 7.0 21.0 0.00 0.00 0.00 81 1013.5
20260508123703 71 120 6.0 21.0 0.00 0.00 0.00 81 1013.5
20260508122704 71 110 6.0 21.0 0.00 0.00 0.00 80 1013.3
20260508121704 71 110 7.0 21.0 0.00 0.00 0.00 80 1013.1
20260508120703 71 100 7.0 18.0 0.00 0.00 0.00 80 1013.0
20260508115703 71 100 7.0 18.0 0.00 0.00 0.00 81 1012.8
20260508114704 71 110 7.0 18.0 0.00 0.00 0.00 80 1012.8
20260508113704 72 110 8.0 18.0 0.00 0.00 0.00 81 1012.7
20260508112704 72 110 6.0 18.0 0.00 0.00 0.00 81 1012.6
20260508111704 72 100 7.0 18.0 0.00 0.00 0.00 81 1012.5
20260508110704 72 100 6.0 21.0 0.00 0.00 0.00 81 1012.4
20260508105704 72 110 6.0 21.0 0.00 0.00 0.00 79 1012.2
20260508104704 72 110 6.0 21.0 0.00 0.00 0.00 80 1012.2
20260508103703 72 100 6.0 21.0 0.00 0.00 0.00 79 1012.1
20260508102704 73 110 5.0 21.0 0.00 0.00 0.00 78 1011.9
20260508101703 73 100 7.0 21.0 0.00 0.00 0.00 80 1011.6
20260508100703 73 100 6.0 21.0 0.00 0.00 0.00 80 1011.5
20260508095704 73 100 8.0 21.0 0.00 0.00 0.00 81 1011.5
20260508094704 73 100 7.0 21.0 0.00 0.00 0.00 81 1011.4
20260508093703 73 110 6.0 21.0 0.00 0.00 0.00 81 1011.4
20260508092703 73 110 6.0 21.0 0.00 0.00 0.00 81 1011.4
20260508091703 73 100 7.0 21.0 0.00 0.00 0.00 82 1011.3
20260508090703 73 110 8.0 23.0 0.00 0.00 0.00 82 1011.2
20260508085703 73 100 9.0 23.0 0.00 0.00 0.00 83 1011.0
20260508084704 74 110 7.0 23.0 0.00 0.00 0.00 82 1011.0
20260508083703 74 110 9.0 23.0 0.00 0.00 0.00 82 1010.8
20260508082704 74 100 9.0 23.0 0.00 0.00 0.00 82 1010.6
20260508081703 74 110 9.0 23.0 0.00 0.10 0.00 82 1010.6
20260508080704 74 100 7.0 21.0 0.00 0.10 0.00 82 1010.5
20260508075704 74 110 6.0 21.0 0.00 0.10 0.00 82 1010.5
20260508074704 74 100 8.0 21.0 0.00 0.10 0.00 83 1010.4
20260508073703 74 110 6.0 21.0 0.00 0.10 0.00 82 1010.5
20260508072703 74 100 7.0 21.0 0.00 0.10 0.00 82 1010.5
20260508071703 74 100 6.0 21.0 0.00 0.10 0.00 81 1010.5
20260508070703 74 110 6.0 21.0 0.00 0.10 0.00 82 1010.5
20260508065704 74 100 6.0 21.0 0.00 0.10 0.00 83 1010.5
20260508064703 74 90 7.0 21.0 0.00 0.10 0.00 82 1010.4